Tracking 26492 objects as of 8-Dec-2022
HD Live streaming from Space Station
objects crossing your sky now

STARLINK-4564

Track STARLINK-4564 now!
10-day predictions
STARLINK-4564 is classified as:


NORAD ID: 53560
Int'l Code: 2022-101AK
Perigee: 545.6 km
Apogee: 548.2 km
Inclination: 53.2 °
Period: 95.4 minutes
Semi major axis: 6917 km
RCS: Unknown
Launch date: August 19, 2022
Source: United States (US)
Launch site: AIR FORCE EASTERN TEST RANGE (AFETR)
aabbcc
Your satellite tracking list
Your tracking list is empty




NASA's NSSDC Master Catalog

Two Line Element Set (TLE):
1 53560U 22101AK  22341.74731132 -.00000434  00000-0 -91605-5 0  9994
2 53560  53.2173 347.1739 0001885  51.5170 308.5991 15.08839305 17103
Source of the keplerian elements: AFSPC